Race Results for
Suisun Harbor Criterium
Suisun City, CA
(Event Information)
View By:
Criterium on 08/14/2011

Note: Ranking points are NOT upgrade points. An explanation of ranking points can be found here.


Men - Cat4/5

 Place Points NameCity, StateTime USAC #BibTeam
1339.77Myron Reyes   San Ramon, CA00:00.0 141386  278 Tri Valley Velo
2344.55Brandon Borth   Lockeford, CA00:00.0 235761  271 
3349.33Peter Rumble   Santa Rosa, CA00:00.0 242773  294 ECHELON RACING DEVELOPMENT
4354.11Richard Della Maggiore   Gilroy, CA00:00.0 178921  270 
5358.89Michael Larson   Truckee, CA00:00.0 234067  289 
6363.67Justin Morgan   Fresno, CA00:00.0 238135  275 Stevens Bicycle Racing
7368.45Craig Dolley   El Dorado Hills, CA00:00.0 158073  286 Team Bicycles Plus/Sierra Neva
8373.23Derek Novaes   West Sacramento, CA00:00.0 274484  293 Rio Strada Racing
9378.01John Constas   Danville, CA00:00.0 273788  264 Fremont Bank Cycling Team
10382.79Jeff Slaton   Davis, CA00:00.0 293126  255 Davis Bike Club Race Team
11387.57Brian Co   Encinitas, CA00:00.0 84510  284 Swamis Cycling
12392.35Mark Valentino   El Dorado Hills, CA00:00.0 112974  296 Folsom Bike
13397.13Chad Richards   Antelope, CA00:00.0 305850  272 Team Bicycless Plus
14401.91Daniel Green   Oroville, CA00:00.0 356192  288 
15406.69Remy CantoAdams   San Luis Obispo, CA00:00.0 299528  282 All Sport-Team Swift
16411.47Charles Himes   Santa Rosa, CA00:00.0 16249  259 Windsor Bicycle Center Cycling
17416.25ERIC BROCKWAY   Santa Rosa, CA00:00.0 286737  263 Windsor Bicycle Center Cycling
18421.03Christopher Leibman   Palo Alto, CA00:00.0 314198  258 Weber-Metro velo
19425.81Jon Stewart   Fresno, CA00:00.0 179851  276 Stevens Bicycle Racing
20430.59Emilio Alvarez   Rutherford, CA00:00.0 306712  280 portocork round pond racing
21435.37Daniel Lee   Petaluma, CA00:00.0 113898  260 Windsor Bicycle Center Cycling
22440.15Dan Wait   San Luis Obispo, CA00:00.0 105160  297 SLO Nexus-Gym One
23444.93Timothy Mualchin   Vacaville, CA00:00.0 197634  292 NA
25449.71Matthew Dizon   Hercules, CA00:00.0 336992  285 UCLA Cycling
26454.49Mark Santillan   Fairfield, CA00:00.0 306635  253 Luzvimin Racing Team
27459.27Uri Friedman   San Francisco, CA00:00.0 202518  261 Chica Sexy
28464.05Peter Spencer   Berkeley, CA00:00.0 282697  265 Taleo Racing
29468.83Charles McCabe   Novato, CA00:00.0 357059  291 
31473.61Jason Neu   Los Gatos, CA00:00.0 305688  279 SJBC
32478.39David Green   Berkeley, CA00:00.0 61932  274 Stevens Bicycle Racing
33483.17Eric Clauss   San Francisco, CA00:00.0 198040  283 Squadra Ovest Cycling
34487.95John Lenoach   Lafayette, CA00:00.0 335218  290 SJBC
35492.73Nicholas Leland   Windsor, CA00:00.0 334480  256 
36497.51Casey Fallon   Sacramento, CA00:00.0 331532  269 Rio Strada Racing
37502.29Allen Brumm   Foster City, CA00:00.0 195431  299 Webcor/Alto Velo
40507.07Curt Mills   Gold River, CA00:00.0 299412  273 
41Marc MENOEN   00:00.0  250 
42516.63Reginald Trimingham   Santa Cruz, CA00:00.0 357800  251 
DNSPatrick Callan   Fair Oaks, CA00:00.0 323184  281 Team Bicycles Plus/Sierra Neva
DNSRobbie Farrens   Stockton, CA00:00.0 289433  287 DJs Produce - Rocket Sports-Tr
DNSDawson STALINGS   00:00.0  295 Bend Endurance Academy
DNPMatthew SANTILLAN   00:00.0  252 
DNPMichael Padilla   Ukiah, CA00:00.0 336504  254 
DNPJason MartelDye   Sacramento, CA00:00.0 310948  257 
DNPKalman Zeiger   San Francisco, CA00:00.0 237651  262 Chica Sexy
DNPDawson STALLING   00:00.0  266 
DNPJustin Leong   Los Altos, CA00:00.0 280621  267 SJBC
DNPJeff Tanforan   Orangevale, CA00:00.0 294020  268 Team Bicycles Plus/Sierra Neva
DNPJohn Chappell   Auburn, CA00:00.0 297614  277 
DNPJosh Wallace   San Carlos, CA00:00.0 195757  298 Webcor/Alto Velo

Men - Cat3/4 - Master - 35-99

 Place Points NameCity, StateTime USAC #BibTeam
1179.68Peter Tousignant   Belmont, CA00:00.0 231855  362 Third Pillar
2186.70Richard Steele   El Dorado Hills, CA00:00.0 58347  371 Sacramento Golden Wheelmen
3193.72Kenny Lane   Citrus Heights, CA00:00.0 274485  358 Rio Strada Racing
4200.74Yutch Cowhie   Fair Oaks, CA00:00.0 261718  357 Rio Strada Racing
5207.76Nabil Samaan   Fair Oaks, CA00:00.0 177518  359 Kinetic Cycles/GBI
6214.78Francisco Padilla   Vallejo, CA00:00.0 160213  393 taleo racing
7221.80Andre Tenthorey   Granite Bay, CA00:00.0 76561  349 Sacramento Golden Wheelmen
8228.82Alvaro Mosquera   Sacramento, CA00:00.0 236809  380 Team Bicycles Plus/Sierra Neva
9235.84Tyron Hooper   San Francisco, CA00:00.0 251276  347 Fusion Sport USA
10242.86Randall Smith   San Carlos, CA00:00.0 185237  376 Peninsula Velo/Pomodoro
11249.88Justin Morgan   Fresno, CA00:00.0 238135  175 Stevens Bicycle Racing
12256.90Stephen Synhorst   Sacramento, CA00:00.0 234097  367 Sac Goldenwheel
13263.92Scott Freiermuth   Menlo Park, CA00:00.0 59509  363 CoreTechs Cycling Team
14270.94frank sisneros   Vacaville, CA00:00.0 354246  397 Rays Cycle/Monticello Cycling
15277.96Robert Napieralski   Springville, CA00:00.0 271499  392 Sacramento Golden Wheelmen
16284.98Morgan Mahanke   El Dorado Hills, CA00:00.0 226577  390 Team Bicycles Plus/Sierra Neva
17292.00Emilio Alvarez (1 - Cat4)   Rutherford, CA00:00.0 306712  384 portocork round pond racing
18299.02Douglas Rowland   Davis, CA00:00.0 295966  395 Davis Bike Club Race Team
19306.04Ken Todd   Folsom, CA00:00.0 174881  378 Team Bicycles Plus/Sierra Neva
20313.06Ian Swinson   Oakland, CA00:00.0 255539  398 Squadra Ovest Cycling
21320.08Michael Reese   Santa Maria, CA00:00.0 256589  370 Central Coast Tire CCT
22327.10Dan Wait   San Luis Obispo, CA00:00.0 105160  361 SLO Nexus Cycling Club
23334.12Daniel Lee   Petaluma, CA00:00.0 113898  382 Windsor Bicycle Center Cycling
24341.14Jason Smith   Kensington, CA00:00.0 53119  351 Dolce Vita Cycling
25348.16John Ellis (2 - Cat4)   Santa Rosa, CA00:00.0 262353  364 Colavita Racing
26355.18Stephen Langone   Redwood City, CA00:00.0 152079  369 Sierra Pacific Racing
27362.20George Meilahn   Antioch, CA00:00.0 166581  360 Christian Cycling-Hammer Nutri
28369.22Chris Dawson   Sacramento, CA00:00.0 224241  366 Rio Strada Racing
29376.24Matthew Smith   Emeryville, CA00:00.0 228089  355 East Bay Velo Club
30383.26Gordon Richardson (3 - Cat4)   Sacramento, CA00:00.0 198509  394 
31390.28Erik Salander   Belmont, CA00:00.0 195443  375 Peninsula Velo/Pomodoro
32397.30James Hopper (4 - Cat4)   Livermore, CA00:00.0 333162  356 Tri Valley Velo
33404.32Givargis Betoshana   Ripon, CA00:00.0 55276  374 Fun Sport Bikes Cycling Team
34411.34R Todd Marshall   Sacramento, CA00:00.0 43936  391 Kinetic Cycles/GBI
35418.36Jeff Watson   Elk Grove, CA00:00.0 293136  379 Team Bicycles/Sierra Nevada
36425.38Matthew Esselstrom   Modesto, CA00:00.0 277510  389 Fun Sport Bikes Cycling Team
DNPBernhard Stonas   Hayward, CA00:00.0 67169  348 Berkeley Bicycle Club (BBC)
DNPDonald Parsons   Pleasanton, CA00:00.0 254434  350 Metromint Cycling
DNPCharles Himes   Santa Rosa, CA00:00.0 16249  381 Windsor Bicycle Center Cycling
DNPDavid Green (Cat4)   Berkeley, CA00:00.0 61932  383 Stevens Bicycle Racing
DNPEric Clauss   San Francisco, CA00:00.0 198040  385 Squadra Ovest Cycling
DNPJ Clifford   Roseville, CA00:00.0 232661  386 Team Bicycles Plus/Sierra Neva
DNPAnthony Coando   San Francisco, CA00:00.0 170101  387 Squadra Ovest
DNPCraig Dolley   El Dorado Hills, CA00:00.0 158073  388 Team Bicycles Plus/Sierra Neva
DNPMichael Saba   Oakland, CA00:00.0 285459  396 Taleo Racing
DNPMarc Trucano   Vacaville, CA00:00.0 332694  399 Precision Stone Racing

Men - Cat 3

 Place Points NameCity, StateTime USAC #BibTeam
1183.85Andre Tenthorey   Granite Bay, CA00:00.0 76561  144 Sacramento Golden Wheelmen
2188.06Tyron Hooper   San Francisco, CA00:00.0 251276  162 Fusion Sport USA
3192.27Nick Kersmarki   Santa Rosa, CA00:00.0 226913  185 Red Peloton
4196.48Keven Bricknell   San Francisco, CA00:00.0 253261  159 Team Mike's Bikes
5200.69Jeff Watson   Elk Grove, CA00:00.0 293136  198 Team Bicycles Plus/Sierra Neva
6204.90Jonathan (Jon) Rotzien   Stanford, CA00:00.0 155766  174 Stanford University
7209.11Ian Swinson   Oakland, CA00:00.0 255539  196 Squadra-Ovest Cycling
8213.32Stephen Synhorst   Sacramento, CA00:00.0 234097  148 SGW
9217.53Garrett Hankins   Carmichael, CA00:00.0 298571  165 Team Bicycles Plus/Sierra Neva
10221.74Michael Roecklein   Lake Forest, CA00:00.0 259341  139 Monster Media Racing SCVELO
11225.95Alistair Eeckman   Berkeley, CA00:00.0 281189  158 Above Category Racing
12230.16Alvaro Mosquera   Sacramento, CA00:00.0 236809  190 Team Bicycles Plus/Sierra Neva
13234.37Denin Sahovic   Sunnyvale, CA00:00.0 271126  194 Squadra Ovest Cycling
14238.58Anthony Coando   San Francisco, CA00:00.0 170101  178 Squadra Ovest
15242.79Michael Claudio   West Sacramento, CA00:00.0 248052  176 Davis Bike Club Race Team
16247.00Nabil Samaan   Fair Oaks, CA00:00.0 177518  137 Kinetic Cycles/GBI
17251.21Chris Dawson   Sacramento, CA00:00.0 224241  142 Rio Strada Racing
18255.42Justin Leopold   Independence, MO00:00.0 299868  143 Celerity Cycling p/b Brooks Sy
19259.63Randall Smith   San Carlos, CA00:00.0 185237  171 Peninsula Velo/Pomodoro
20263.84Marco Carvajal   San Francisco, CA00:00.0 305357  167 California Giant Berry Farms/S
21268.05Givargis Betoshana   Ripon, CA00:00.0 55276  151 Fun Sport Bikes Cycling Team
22272.26Morgan Mahanke   El Dorado Hills, CA00:00.0 226577  188 Team Bicycles Plus/Sierra Neva
23276.47Robert Napieralski   Springville, CA00:00.0 271499  191 Sacramento Golden Wheelmen
24280.68Kirk Evans   Sacramento, CA00:00.0 259534  181 Team Becher+
25284.89Kieran Cox   Oakland, CA00:00.0 244305  136 Berkeley Bicycle Club (BBC)
26289.10Ken Todd   Folsom, CA00:00.0 174881  172 Team Bicycles Plus/Sierra Neva
27293.31Douglas Rowland   Davis, CA00:00.0 295966  193 Davis Bike Club Race Team
28297.52Richard Steele   El Dorado Hills, CA00:00.0 58347  150 Sacramento Golden Wheelmen
29301.73Ryan Oakes   Chico, CA00:00.0 258824  192 Bicycle Planet
30305.94Stephen Langone   Redwood City, CA00:00.0 152079  149 Sierra Pacific Racing
31310.15Santiago Bolon   San Jose, CA00:00.0 195384  168 ICCC-St. Louis
32314.36Bruno Pitton   Winters, CA00:00.0 240530  138 Davis Bike Club
33318.57Jeffrey Palileo   American Canyon, CA00:00.0 224717  173 Squadra Ovest Cycling
34322.78Andreas Schulten   Cameron Park, CA00:00.0 248096  195 Bicycle Planet
35326.99Dan Tedford   Mountain View, CA00:00.0 196695  197 Squadra Ovest Cycling
36331.20Jack Maddux   Fresno00:00.0 296879  155 Team Specialized Racing Junior
37335.41Geoffrey Davis   San Luis Obispo, CA00:00.0 205688  179 ArtsCyclery.com/Wild Horse Win
38339.62Jason James   Oakland, CA00:00.0 119309  184 Squadra Ovest Cycling
39343.83R Todd Marshall   Sacramento, CA00:00.0 43936  189 Kinetic Cycles/GBI
40348.04J Clifford   Roseville, CA00:00.0 232661  177 Team Bicycles Plus/Sierra Neva
41352.25Matthew Esselstrom   Modesto, CA00:00.0 277510  180 Fun Sport Bikes Cycling Team
DNSReese Levine   Orinda, CA00:00.0 263998  187 Tieni Duro
DNPBenjamin Barry   Arcata, CA00:00.0 289212  140 Humboldt State University
DNPMichael Reese   Santa Maria, CA00:00.0 256589  141 Central Coast Tire CCT
DNPNick Kinney   Windsor, CA00:00.0 255460  166 Whole Athlete/Specialized
DNPErik Salander   Belmont, CA00:00.0 195443  169 Peninsula Velo/Pomodoro
DNPNicholas HEXTALL   00:00.0  182 Stan's No Tubes
DNPEric Zumwalt   Santa Rosa, CA00:00.0 53375  199 R4R Make-A-Wish

Men - Pro/Cat 1/2

 Place Points NameCity, StateTime USAC #BibTeam
187.39Andy Jacques-Maynes (1 - Pro)   Watsonville, CA00:00.0 17590  40 UCI CT: Bissell Pro Cycling T
289.84Daniel Holloway (2 - Pro)   Morgan Hill, CA00:00.0 181725  29 UCI CT: Kelly Benefit Strategi
392.29Sam Bassetti (1 - Cat1)   San Geronimo, CA00:00.0 237712  30 Firefighters Cycling - Formigl
4Yury YURCHANKA   00:00.0  99 McGuire Cycling Team
597.19Robert Evans (1 - Cat2)   Scotts Valley, CA00:00.0 72893  80 McGuire Cycling Team
699.64Justin Rossi   Reno, NV00:00.0 298550  69 Marc Pro - Strava
7102.09Nathaniel Wilson   Boulder, CO00:00.0 207985  98 California Giant Berry Farms/S
8104.54Steve Reaney (2 - Cat1)   San Jose, CA00:00.0 133288  92 California Giant Berry Farms/S
9106.99Charlie Schneider   Petaluma, CA00:00.0 245542  42 Whole Athlete-Specialized
10109.44Judd Van Sickle   Sacramento, CA00:00.0 127052  37 Mercedes Benz/Folsom Bike
11111.89Jeff Linder   Sunnyvale, CA00:00.0 307653  27 Webcor/Alto Velo
12114.34William Myers   Carmichael, CA00:00.0 306325  67 Fremont Bank Cycling Team
13116.79Charles Hutcheson (3 - Cat1)   Sacramento, CA00:00.0 54686  83 McGuire Cycling Team
14119.24Nicholas Oliver   El Dorado Hills, CA00:00.0 271541  35 Fremont Bank Cycling Team
15121.69Matthew Ream (2 - Cat2)   Verdi, NV00:00.0 211441  91 Great Basin Imaging | Kinetic
16124.14Philip Roberts   Oakland, CA00:00.0 30110  66 Missing Link Bicycle Co-op
17Naoya YOIHIOKA   00:00.0  53 Kyoto Sangyo University
18129.04Martin Acosta   East Palo Alto, CA00:00.0 291277  72 McGuire Cycling Team
19UNKNOWN RIDER   00:00.0  57 -------
20133.94Ryan Ramos   Berkeley, CA00:00.0 139348  26 RS2 Energy
21136.39Marcus Smith   Pleasanton, CA00:00.0 209193  31 Team Specialized Racing Junior
22Keisuke KIMURA   00:00.0  54 Kyoto Sangyo University
23141.29Adam Carr   Colchester, VT00:00.0 208854  62 Form Fitness
24UNKNOWN RIDER   00:00.0  ??? -------
25146.19Neil Bartley   San Jose, CA00:00.0 209268  70 Squadra Ovest Cycling
26148.64Sean Smith   Oakland, CA00:00.0 204018  45 Webcor/Alto Velo
27151.09Sergei Badeka   Palo Alto, CA00:00.0 118797  74 McGuire Cycling Team
28153.54Blake Anton   Arroyo Grande, CA00:00.0 192686  73 Team Clif Bar
29155.99Michael Jasinski (4 - Cat1)   Rocklin, CA00:00.0 269476  85 Fremont Bank Cycling Team
30158.44Carmi Schulman   Seattle, WA00:00.0 200292  94 Webcor/Alto Velo
31160.89Peter Nicholson   Mill Valley00:00.0 219558  88 Whole Athlete-Specialized
32163.34Jason Snovel   Sacramento, CA00:00.0 268577  34 Mercedes Benz/Folsom Bike
33165.79Joe Dickerson   Los Gatos, CA00:00.0 306664  77 McGuire Cycling Team
34168.24Todd Stone   Carmichael, CA00:00.0 249318  64 Fremont Bank Cycling Team
35170.69James Hardy   Oakland, CA00:00.0 80116  81 Squadra Ovest Cycling
36173.14Ariel Herrmann   San Francisco, CA00:00.0 163046  36 Metromint Cycling
37175.59Brandon Franklin (3 - Cat2)   Clovis, CA00:00.0 239689  21 Sierra Pacific Racing
38178.04Andrew Goessling (5 - Cat1)   Richmond, CA00:00.0 207262  41 TEAM CLIF BAR Cycling
39180.49Alton Dunnigan   Pleasant Hill, CA00:00.0 157044  79 Bicycle Planet
40182.94Robbie Franscioni (4 - Cat2)   Salinas, CA00:00.0 298805  46 Bay Bikes/Specialized
41185.39Angelo DiGiovine (5 - Cat2)   San Francisco, CA00:00.0 141326  78 Squadra Ovest Cycling
42187.84Kenny Strickland   San Ramon, CA00:00.0 270965  95 SJBC
43190.29Ethan Atkins   San Francisco, CA00:00.0 224998  39 Metromint Cycling
44192.74Sterling Magnell (3 - Pro)   Santa Rosa, CA00:00.0 120588  55 UCI CT: Wonderful Pistachios C
45195.19John Piasta   Santa Rosa, CA00:00.0 271963  90 All Sport-Team Swift
46197.64Evan Huffman   El Dorado Hills, CA00:00.0 256955  82 Cal Giant/Specialized
47200.09Rand Miller (6 - Cat1)   San Francisco, CA00:00.0 182990  24 Webcor/Alto Velo
48202.54Logan Loader   Felton, CA00:00.0 198542  32 RideClean p/b PatentIt.com
49204.99Collin Samaan (4 - Pro)   Fair Oaks, CA00:00.0 196233  93 Wonderful Pistachios Pro Cycli
DNSMichael Jacques (Cat1)   Portola Valley, CA00:00.0 72022  84 Team Clif Bar
DNSKeith Miller (Cat1)   Los Gatos, CA00:00.0 53753  87 California Giant Berry Farms/S
DNSMichael Williams (Cat2)   Thousand Oaks, CA00:00.0 279253  97 Wonderful Pistachios
DNPWilliam (Billy) Crane   Mountain View, CA00:00.0 138129  20 Webcor/Alto Velo
DNPJoe Iannarelli   Vacaville, CA00:00.0 195783  23 Yahoo Cycling Team
DNPJack Rector (Cat2)   San Ramon, CA00:00.0 29332  25 Form Fitness
DNPMark Walsh   Sacramento, CA00:00.0 46040  28 Berkeley Bicycle Club (BBC)
DNPTrevor White   Oakland, CA00:00.0 503  33 CalNorte VC Switchbacks
DNPScott Herring   Sausalito, CA00:00.0 236346  38 xXx Racing
DNPAaron Gallardo   Woodland Hills Ca00:00.0 160366  47 Team Helen's
DNPPaul Sumner   San Anselmo, CA00:00.0 47616  52 Divine Electric Norcal
DNPLeon HEXTALL   00:00.0  68 Stan's No Tubes
DNPDavid Pouncy   Piedmont, CA00:00.0 248071  71 Squadra Ovest Cycling
DNPGabriel Byrne   Santa Cruz, CA00:00.0 178761  75 Squadra Ovest Cycling
DNPMatt Chatlaong   Roseville, CA00:00.0 304797  76 Team City Sacramento
DNPDavid McCook   Tampa Fl00:00.0 66627  86 McGuire Cycling Team
DNPTorey Philipp   El Dorado Hills, CA00:00.0 263055  89 Team Specialized Racing Junior
DNPRussell White   Lafayette, CA00:00.0 236024  96 Davis Bike Club
DNPDavid EVERETT   00:00.0  22 Probikekit.com

Women - Cat1/2/3

 Place Points NameCity, StateTime USAC #BibTeam
1116.47Jane Robertson   Davis, CA00:00.0 218607  579 Metromint Cycling
2124.49Mary Elizabeth Maroon   Sacramento, CA00:00.0 219555  595 Webcor/AltoVelo
3132.51Kristin Drumm   Novato, CA00:00.0 661  583 Divine Electric Norcal
4140.53Amy Chandos   Flagstaff, AZ00:00.0 256409  591 Fremont Bank Cycling Team
5148.55Michelle Melka   Baltimore, MD00:00.0 302454  597 RED Racing
6156.57Anna Barensfeld   Ellwood City Pa00:00.0 234148  572 Missing Links Coaching & Train
7164.59Lindsay McAlpine (1 - Cat3)   Kensington, CA00:00.0 316838  596 Dolce Vita Cycling
8172.61Kira Prokopakis   Santa Clara, CA00:00.0 283149  571 Los Gatos
9180.63Heather Lipana   Folsom, CA00:00.0 333090  577 Rio Strada Racing
10188.65Courtney Dimpel (1 - Cat2)   Aptos, CA00:00.0 302140  585 BSA RACING
11196.67Emily Matheu   Oakland, CA00:00.0 277109  581 Red Racing
12204.69Heather Ross   Felton, CA00:00.0 239612  587 Spokesman/Cloud Nine
13212.71Carol Irving   Woodland, CA00:00.0 17419  573 Touchstone Climbing
14220.73Christine Riker   San Francisco, CA00:00.0 290240  598 RED Racing
15228.75Starla Teddergreen   Portland, OR00:00.0 202033  578 Vanderkitten-Focus
16236.77Jennifer Reither   Boulder , CO00:00.0 146585  586 Vanderkitten
17244.79Sarah Maile (2 - Cat2)   Sacramento, CA00:00.0 163025  574 
18252.81Heather Nielson   Seattle, WA00:00.0 237346  588 Touchstone Climbing
19260.83Ann Stuart   Sacramento, CA00:00.0 250365  589 Touchstone Climbing
20268.85Emily Foxman   Mountain View, CA00:00.0 255430  592 Webcor/Alto Velo
21276.87Rhonda Serr   Reno00:00.0 278473  599 Dolce Vita Cycling
22284.89Shannon Bhatia   San Jose, CA00:00.0 306273  570 SJBC
23292.91Ellen Evans (2 - Cat3)   Sacramento, CA00:00.0 310883  584 b+ radsport
24300.93Katie Stonebraker   Sacramento, CA00:00.0 226927  575 Rio Strada Racing
25308.95Allyson Kutler (3 - Cat3)   San Francisco, CA00:00.0 304509  582 Red Racing
26316.97Jennifer Kalich   Aromas00:00.0 297754  593 Cal Giant Cycling Team
27324.99Taylor Meilahn   Antioch, CA00:00.0 196485  576 SJBC
DNPMary Magnani   San Francisco, CA00:00.0 257717  580 Red Racing
DNPKerry Stivaletti   Los Gatos, CA00:00.0 239419  590 Team TIBCO II
DNPTerri Mahannah (Cat3)   Reno, NV00:00.0 333450  594 Tri Valley Velo

Women - Cat 4

 Place Points NameCity, StateTime USAC #BibTeam
1362.03Heidi Littenberg   Reno, NV00:00.0 286191  996 Lost River Cycling
2382.18Sofia Marin   San Francisco, CA00:00.0 318908  994 
3402.33Claire Morgan   Gold River, CA00:00.0 335402  997 
4422.48Kate Furtner   Forestville, CA00:00.0 337588  991 Early Bird Women
5442.63Aliya Traficante   Chico, CA00:00.0 310825  999 Team TIBCO II
6462.78Maryann Schrupp   Reno, NV00:00.0 288460  998 Team Tibco II
7482.93Anne Findlay   Sonora, CA00:00.0 238310  995 Team Type 1
8503.08Brett Ortiz   San Francisco, CA00:00.0 271361  993 Dolce Vita Cycling
9523.23Erin Andreatta   New York, NY00:00.0 336602  988 Team Bicycles Plus/Sierra Neva
10543.38Kathryn Styer   San Francisco, CA00:00.0 309920  992 Early Bird Womens Developmenta
11563.53Jessica Kuo   Berkeley, CA00:00.0 252878  989 Cal Cycling
DNPKristin Frandsen   Mill Valley, CA00:00.0 331336  990 Dolce Vita Cycling

Report missing or incorrect license numbers

Volkswagen
USACDFSierra NevadaShimanoSpyBonk Breaker
UCI USA Cycling is the official governing body for all disciplines of competitive cycling in the United States. The 501c3, membership-based organization aims both to achieve sustained success in international cycling competition and to grow competitive cycling in America while delivering an exceptional customer experience.
View Children's Online Privacy Protection Policy
US Olympic Committee